Volver al catálogo

FENGYUN 1C DEB

ActivoSSO
NORAD 31830·DEBRIS·🇨🇳 China

Lanzado May 10, 1999 desde Taiyuan Satellite Launch Center

Loading…

Próximos Pases (próximas 24 horas)

TLE

ActualizadoSource: Space-Track

Época: Sep 14, 2026, 06:10 UTC

1 31830U 99025CHU 26257.25712976  .00001244  00000-0  10115-2 0  9992
2 31830  99.1685   1.2871 0182266 297.0048  90.0427 13.84469182965513

Sigue FENGYUN 1C DEB en tiempo real con AllMySat

Download on the App Store